Location: Earls Croome
(52.0667°N, 2.2000°W)
Time: 21:12:00
(UTC+00:00)

COSMOS 2455 - Pass Details

Date: 23 February 2020
Orbit: 901 x 909 km, 67.1° (Epoch: 09 April)

Event Time Altitude Azimuth Distance (km) Brightness Sun altitude
Exits shadow 01:46:27 17° 17° (NNE) 2,143 5.2 -44.7°
Drops below altitude 10° 01:48:32 10° 35° (NE) 2,601 5.8 -44.5°
Sets 01:51:45 0° 51° (NE) 3,545 6.6 -44.2°
